Regional Weather Roundup
Issued by NWS

Home | Current Version | Previous Version | Text Only | Print | Product List | Glossary On
Versions: 1 2 3 4 5 6 7 8 9 10 11 12 13 14 15 16 17 18 19 20 21 22 23 24 25 26 27 28 29 30 31 32 33 34 35 36 37 38 39 40 41 42 43 44 45 46 47 48 49 50
000
ASUS43 KDTX 071501
RWRMI
MICHIGAN HOURLY REGIONAL WEATHER ROUNDUP
NATIONAL WEATHER SERVICE DETROIT/PONTIAC MI
1000 AM EST SUN FEB 07 2016

NOTE: "FAIR" INDICATES FEW OR NO CLOUDS BELOW 12,000 FEET WITH NO
SIGNIFICANT WEATHER AND/OR OBSTRUCTION TO VISIBILITY.

MIZ047>049-052>055-059>063-066>070-074>076-081>083-071600-
SOUTHEAST LOWER MICHIGAN

CITY           SKY/WX    TMP DP  RH WIND       PRES   REMARKS
ADRIAN         CLOUDY    35  28  75 SW13      29.95S WCI  26
ALMA           MOSUNNY   38  32  80 S12       29.83F WCI  30
ANN ARBOR      PTSUNNY   33  27  78 SW10      29.93S WCI  25
BAD AXE        CLOUDY    37  30  76 S12       29.88F WCI  29
CARO           MOSUNNY   38  29  70 S9        29.87F WCI  32
DETROIT CITY   CLOUDY    37  26  64 SW13      29.95F WCI  29
DETROIT        CLOUDY    36  27  69 S8        29.96S WCI  30
FLINT          PTSUNNY   39  28  64 S8        29.89F WCI  33
GROSSE ILE     MOSUNNY   37  30  75 S8        29.95S WCI  31
HILLSDALE      CLOUDY    34  27  75 S7        29.90F WCI  28
HOWELL         CLOUDY    36  28  73 S9        29.89F WCI  29

CITY           SKY/WX    TMP DP  RH WIND       PRES   REMARKS
JACKSON        CLOUDY    37  26  64 S8        29.90S WCI  31
LAMBERTVILLE   CLOUDY    37  28  70 SW9       29.97S WCI  30
LANSING        PTSUNNY   38  27  64 S10       29.87F WCI  31
LAPEER         FAIR      34  29  82 S6        29.89F WCI  29
MASON          PTSUNNY   36  28  73 S6        29.88F WCI  31
MONROE         CLOUDY    37  28  71 S7        29.96R WCI  31
PONTIAC        CLOUDY    34  26  72 S6        29.91S WCI  29
PORT HOPE        N/A     35  28  75 S7        29.86F WCI  29
PORT HURON     PTSUNNY   34  28  80 S7        29.94S WCI  28
TRI CITIES     CLOUDY    39  29  67 S9        29.85F WCI  33
MIDLAND        FAIR      37  28  71 S7        29.84F WCI  32
TROY           CLOUDY    36  27  69 S8        29.95S WCI  29
SAGINAW HB     CLOUDY    37  32  81 S9        29.86F WCI  31
$$
MIZ043>046-050>051-056>058-064>065-071>073-077>080-071600-
SOUTHWEST LOWER MICHIGAN

CITY           SKY/WX    TMP DP  RH WIND       PRES   REMARKS
BATTLE CREEK   PTSUNNY   37  27  67 S14G24    29.86F WCI  28
BENTON HARBOR  CLOUDY    40  29  64 S12G20    29.84F WCI  33
BIG RAPIDS     CLOUDY    36  31  82 S6        29.76F WCI  31
COLDWATER      CLOUDY    38  29  70 SW8       29.90F WCI  32
FREMONT        FAIR      37  30  76 S10       29.76F WCI  30
HOLLAND        CLOUDY    40  30  67 SW14      29.82F WCI  32
GRAND RAPIDS   PTSUNNY   39  29  67 S16       29.82F WCI  30
IONIA          FAIR      36  29  74 S12       29.82F WCI  28
KALAMAZOO      PTSUNNY   39  29  67 S14       29.86F WCI  31
LUDINGTON      CLOUDY    38  32  78 S16G22    29.73F WCI  29
MARSHALL       PTSUNNY   37  28  70 S8        29.88F WCI  31
MOUNT PLEASANT CLOUDY    37  29  72 S12       29.81F WCI  30
MUSKEGON       CLOUDY    40  31  70 S17G29    29.78F WCI  31
SOUTH HAVEN    CLOUDY    40  30  66 SW10G16   29.83F WCI  34
$$
MIZ016>042-071600-
NORTHERN LOWER MICHIGAN

CITY           SKY/WX    TMP DP  RH WIND       PRES   REMARKS
ALPENA         CLOUDY    32  28  85 S10       29.83F WCI  24
BEAVER ISLAND  CLOUDY    37  32  84 S7        29.69F WCI  31
BELLAIRE       CLOUDY    37  31  76 S9G18     29.74F WCI  31
CADILLAC       CLOUDY    34  30  84 S12       29.72F WCI  26
CHARLEVOIX     CLOUDY    37  31  79 S8        29.74F WCI  31
FRANKFORT      CLOUDY    38  32  78 S14G20    29.70F WCI  30
GAYLORD        CLOUDY    33  28  81 S14       29.73F WCI  23
GRAYLING       CLOUDY    33  28  84 S12       29.76F WCI  24
HARBOR SPRINGS CLOUDY    36  30  78 S5        29.72F WCI  32
HOUGHTON LAKE  CLOUDY    33  28  81 S13       29.78F WCI  24
MANISTEE       CLOUDY    37  30  75 S8        29.73F WCI  31
OSCODA         CLOUDY    35  29  79 S12       29.83F WCI  27
PELLSTON       CLOUDY    33  28  81 SE9       29.73F WCI  25
ROGERS CITY    CLOUDY    32  28  84 S8        29.80F HAZE    WCI  25
TRAVERSE CITY  CLOUDY    40  30  67 VRB7      29.71F
$$
MIZ007>008-015-071600-
EASTERN UPPER MICHIGAN

CITY           SKY/WX    TMP DP  RH WIND       PRES   REMARKS
KINROSS        CLOUDY    34  30  86 SE16      29.73F WCI  23
MACKINAC ISLAN CLOUDY    32  28  85 SE13G20   29.72F WCI  23
NEWBERRY       LGT SNOW  33  32  98 S14       29.65F VSB 1   WCI  23
S. S. MARIE    CLOUDY    32  29  88 SE9       29.74F FOG     WCI  24
$$
MIZ004>006-011>014-085-071600-
CENTRAL UPPER MICHIGAN

CITY           SKY/WX    TMP DP  RH WIND       PRES   REMARKS
MANISTIQUE     LGT SNOW  33  32  96 S9        29.65F WCI  26
ESCANABA       CLOUDY    34  30  86 S9        29.63F WCI  26
MENOMINEE      CLOUDY    36  30  80 SW9       29.63F WCI  29
SAWYER-GWINN   LGT SNOW  28  27  93 S10       29.57F WCI  19
$$
MIZ001>003-009>011-084-071600-
WESTERN UPPER MICHIGAN

CITY           SKY/WX    TMP DP  RH WIND       PRES   REMARKS
IRON MOUNTAIN  CLOUDY    30  27  88 S7        29.57S FOG     WCI  23
HOUGHTON       SNOW      30  28  92 SE6       29.51F VSB 1/2 WCI  24
COPPER HARBOR    N/A     32  31  96 SW8       29.54F WCI  25
IRONWOOD       CLOUDY    32  28  86 S9        29.46F WCI  24
$$

ABBREVIATIONS USED IN REMARKS
   TC - TEMPERATURE IN CELSIUS
  WCI - WIND CHILL INDEX
   HX - HEAT INDEX
  VSB - VISIBILITY





USA.gov is the U.S. government's official web portal to all federal, state and local government web resources and services.